User: anonymous   Login
Location: Unspecified
(0.0000°N, 0.0000°E)
Time: 11:59:12
(UTC+00:00)
Language:

Kosmos-2074 - Orbit

View from above orbital plane
View from above orbital plane
View from above satellite
View from above satellite

Ground track
Ground track

The orbit data is extracted from the following two-line orbital elements,

1 20577U 90036A   18017.57844119  .00000048  00000-0  34569-4 0  9998
2 20577  82.9410 221.0247 0027805 133.0555 251.1433 13.74619326391845
Epoch (UTC): 17 January 2018 13:52:57
Eccentricity: 0.0027805
inclination: 82.9410°
perigee height: 962 km
apogee height: 1003 km
right ascension of ascending node: 221.0247°
argument of perigee: 133.0555°
revolutions per day: 13.74619326
mean anomaly at epoch: 251.1433°
orbit number at epoch: 39184

The dashed part of the orbit path shows where the satellite is in the earth's shadow,  

DLR